Temperature
28 28 29 29 29 29 29 30 30 30 30 30 29 28 27 26 25 25 24 23 23 23 22 22 22 22 22 21 21 21 21 21 21 21 21 20 20 20 20 20 19 19 19 19
27 28 28 28 28 29 29 29 29 29 29 29 28 27 26 25 24 24 24 23 22 22 21 21 21 21 21 21 21 21 21 21 21 21 20 20 20 20 20 20 20 19 19 19
26 27 27 27 28 28 28 28 29 29 28 27 27 26 25 24 23 23 23 22 22 21 21 21 21 21 21 21 21 21 20 20 20 20 20 20 20 20 19 19 19 19 19 19
26 25 25 27 27 28 27 27 28 27 27 27 26 25 23 22 22 22 22 21 21 21 21 21 21 21 21 21 21 20 20 20 20 20 20 20 20 19 19 19 19 19 19 18
25 25 26 26 26 27 26 26 26 26 26 25 24 24 24 22 21 21 21 21 20 21 21 21 21 20 20 20 20 20 20 20 20 20 20 20 20 19 19 19 19 19 18 18
24 24 25 26 25 24 25 25 24 24 24 24 24 26 25 22 21 21 20 20 20 20 20 20 20 20 20 20 19 19 19 20 20 20 20 20 19 19 19 19 18 18 18 18
23 24 25 25 24 24 24 24 22 22 22 22 23 23 22 21 20 19 19 19 19 19 19 20 19 19 19 19 19 19 19 19 19 19 19 19 19 19 18 18 18 18 18 17
23 23 24 23 23 24 22 21 20 20 20 21 20 20 20 19 19 19 19 18 18 18 18 19 19 19 19 19 19 18 18 18 18 18 18 18 18 18 18 17 17 17 17 16
22 22 21 20 21 20 19 19 19 19 19 19 19 19 19 19 18 18 18 18 18 18 18 18 18 18 18 18 18 18 18 17 17 17 17 17 17 17 17 17 16 16 16 16
20 20 20 19 18 18 18 18 18 18 18 18 18 18 18 18 18 17 17 17 17 17 17 17 17 17 17 17 17 17 17 17 17 17 17 17 16 16 16 16 16 16 16 15
19 19 19 18 18 17 17 17 17 17 18 18 18 17 17 17 17 17 17 17 17 16 16 16 16 16 17 17 17 16 16 16 16 16 16 16 16 16 15 15 15 15 15 15
19 18 18 17 17 16 16 17 17 17 17 17 17 17 17 16 16 16 16 16 16 16 16 16 16 16 16 16 16 16 16 15 16 15 15 15 15 15 15 15 15 14 14 14
17 17 16 16 16 16 16 16 16 16 16 16 16 16 16 16 15 15 15 15 16 15 15 15 15 15 15 16 15 15 15 15 15 15 15 15 14 14 14 14 14 14 14 14
15 15 15 15 15 15 15 15 15 15 15 15 15 15 15 15 15 15 15 15 15 15 15 15 15 15 15 15 15 15 15 15 14 14 14 14 14 14 14 14 14 14 14 13
14 15 15 15 14 15 14 15 15 15 14 14 15 14 14 14 14 14 14 14 14 14 14 14 14 14 14 14 14 14 14 14 14 14 14 14 14 14 14 13 13 13 13 13
14 14 14 14 14 14 14 14 14 14 14 14 14 14 14 14 14 14 13 13 13 14 14 14 14 14 14 14 14 14 14 14 14 13 13 13 13 13 13 13 13 13 12 13
14 14 14 14 14 14 14 13 13 13 13 13 13 13 13 13 13 13 13 13 13 13 13 13 13 13 13 13 13 13 13 13 13 13 13 13 13 13 13 13 12 12 12 12
13 13 13 13 13 13 13 13 13 13 13 13 12 12 12 12 12 12 12 12 12 12 13 13 13 13 13 13 13 13 13 13 13 12 12 12 12 12 12 12 12 12 11 11
12 12 12 12 12 12 12 12 12 12 12 12 12 12 12 12 12 12 12 12 12 12 12 12 12 12 12 12 12 12 12 12 12 12 12 12 12 12 11 11 11 11 11 10
12 12 12 12 12 12 12 12 12 11 11 12 12 11 12 12 12 12 11 12 12 12 12 12 12 12 12 12 12 12 12 12 12 11 11 11 11 11 11 10 10 10 10 10
11 11 11 11 11 11 11 11 11 11 11 11 11 11 11 11 11 11 11 12 11 11 11 11 11 11 11 11 11 12 12 11 11 11 11 10 10 10 10 10 10 9 9 9
11 11 11 11 11 11 11 11 11 11 11 11 11 11 11 11 11 11 11 11 11 11 11 11 11 11 11 11 11 11 11 11 11 10 10 10 10 9 9 9 9 9 9 9
11 11 11 11 10 11 11 11 11 10 10 10 10 11 11 10 11 11 11 11 10 10 10 11 11 11 11 10 10 10 10 10 10 10 10 9 9 9 9 8 8 8 8 8
10 10 10 10 10 10 10 10 10 10 10 10 10 10 10 10 10 11 10 10 10 10 10 10 10 10 10 10 10 10 10 10 9 9 9 9 8 8 8 8 8 7 7 7
10 10 10 10 10 10 10 10 10 10 10 10 10 10 10 10 10 10 10 10 10 10 10 10 10 10 9 9 9 9 9 9 9 9 8 8 8 8 7 7 7 7 7 6
10 10 10 10 10 10 10 10 10 10 10 10 10 10 10 10 10 9 9 9 9 9 9 9 9 9 9 9 9 9 9 8 8 8 8 7 7 7 7 7 6 6 6 6
10 10 10 10 10 10 10 10 10 9 10 10 10 9 9 9 9 9 9 9 9 9 9 9 9 9 9 8 8 8 8 8 7 7 7 7 7 7 6 6 6 6 6 6
Wind_Speed
12 10 10 12 14 15 16 16 15 12 10 8 5 4 4 3 4 5 6 7 7 7 7 7 8 9 10 10 10 10 10 11 10 9 8 8 7 7 6 6 7 6 6 6
13 12 13 14 15 16 17 16 16 14 11 6 4 3 3 4 5 6 6 6 7 7 7 7 7 8 8 9 9 10 10 10 9 9 8 8 7 7 7 7 6 6 6 6
13 12 13 16 15 16 15 13 14 15 11 6 5 4 4 4 4 4 5 5 5 5 6 6 7 7 7 7 8 8 8 8 7 7 7 7 7 7 7 6 6 6 6 6
11 11 17 9 5 8 11 10 9 8 6 6 5 3 3 3 3 4 4 3 4 5 5 6 6 7 7 7 7 7 7 7 7 7 7 6 6 6 6 5 6 6 6 6
10 14 13 8 6 8 9 8 5 6 6 4 4 4 4 2 2 2 3 3 3 4 5 5 5 6 6 6 7 7 7 7 7 7 7 7 6 6 5 5 5 5 5 5
11 13 14 7 4 2 6 9 5 5 4 4 6 7 4 2 2 1 1 2 3 3 4 4 4 5 6 6 6 6 6 6 6 6 7 7 6 6 5 5 5 5 5 5
14 13 9 1 2 4 9 4 3 1 3 4 4 3 1 1 2 1 1 2 3 3 3 3 4 4 5 5 5 5 5 5 5 5 6 6 5 5 5 5 5 5 4 3
12 14 9 2 3 4 1 2 1 1 2 2 1 1 1 1 2 2 2 2 3 3 3 3 3 4 5 5 4 4 4 4 4 5 5 4 5 5 5 5 5 5 4 4
6 5 1 1 1 2 1 1 2 3 2 1 1 1 1 0 1 2 2 2 2 3 3 2 3 3 3 3 3 3 4 4 4 4 4 4 5 5 5 5 5 5 5 4
5 4 2 1 2 2 2 2 3 3 2 1 1 1 1 0 0 1 1 1 2 3 3 2 2 1 2 2 3 3 4 3 3 4 3 3 3 4 4 4 5 5 5 4
7 6 5 4 3 2 3 4 3 3 2 2 1 1 1 1 1 1 1 1 1 1 2 2 2 1 1 2 3 4 4 4 4 4 4 3 2 1 3 2 2 4 4 4
8 6 5 5 5 5 5 4 3 3 2 2 2 3 2 2 1 1 1 1 1 1 2 1 1 1 2 2 4 4 4 4 4 4 3 3 3 2 6 2 3 1 1 2
8 7 6 6 6 6 5 3 3 3 2 3 3 3 2 2 1 1 1 2 2 2 2 1 1 1 1 2 3 4 4 4 3 4 4 4 3 3 2 2 3 2 1 2
5 6 7 7 5 4 4 3 3 2 3 3 2 2 1 2 1 1 2 2 2 2 2 2 1 2 2 2 3 4 4 4 4 4 3 3 4 4 3 3 2 1 1 4
4 5 5 4 4 4 4 3 3 3 3 3 2 1 1 1 1 1 1 1 2 2 2 1 1 1 2 2 2 3 4 3 3 3 3 3 3 3 3 3 3 2 2 3
5 4 4 4 5 4 4 4 4 4 3 2 2 1 1 1 2 2 1 1 2 2 1 1 1 1 1 1 2 2 2 2 2 3 3 3 3 3 3 3 3 4 3 2
4 4 4 5 4 4 4 4 4 3 2 2 1 1 1 1 1 1 1 1 1 0 1 1 1 0 1 1 2 1 1 2 3 3 2 2 2 2 3 3 3 3 3 1
4 5 5 5 5 4 4 3 3 2 2 1 1 1 1 1 1 0 1 1 1 2 2 1 2 1 1 2 1 1 2 2 2 2 2 2 2 2 2 2 2 3 1 2
3 3 3 3 3 3 3 3 2 2 1 1 1 1 0 0 0 1 1 1 1 2 1 1 1 1 1 2 1 2 2 2 2 2 2 2 2 2 2 2 2 1 1 1
1 1 1 1 1 2 2 2 1 1 1 1 1 1 1 1 1 1 1 1 2 2 2 2 1 1 1 1 0 1 1 2 2 2 2 2 2 1 1 1 1 0 0 0
2 1 1 0 0 1 1 1 1 2 1 1 2 2 1 1 1 1 1 2 3 3 2 2 1 1 1 1 1 1 1 1 1 1 2 2 1 1 1 0 0 0 1 1
2 2 1 1 1 1 1 0 1 1 1 1 2 2 2 1 1 1 1 1 2 3 1 1 2 3 2 2 0 1 2 2 2 2 2 1 1 1 0 0 0 0 1 1
2 2 1 1 1 1 1 1 1 1 1 1 2 2 2 1 1 1 2 2 2 4 2 2 5 5 2 0 2 2 3 2 2 2 2 1 1 0 1 1 0 1 1 1
2 2 2 1 2 2 2 2 2 2 2 2 2 2 2 2 2 2 2 5 4 4 3 5 6 4 1 1 2 3 3 3 2 2 2 2 2 2 2 1 1 1 1 1
2 2 2 2 2 2 3 3 3 4 5 4 4 4 3 3 3 3 4 4 5 4 4 4 5 3 2 2 3 3 3 4 3 3 3 3 3 2 2 2 2 2 1 1
3 2 2 2 3 2 3 3 3 4 4 4 4 4 4 4 4 4 4 5 6 5 3 3 4 3 3 3 3 4 4 4 3 3 3 3 2 3 3 2 2 1 1 2
3 3 2 2 3 3 3 3 3 4 4 4 5 5 4 4 4 4 5 4 4 4 4 4 3 3 3 3 4 4 3 3 3 3 3 2 3 2 2 2 1 2 2 2
Wind_Direction
253 256 248 241 234 231 237 245 251 251 248 243 242 232 215 201 189 184 180 176 174 172 171 174 175 179 184 188 190 191 192 196 198 198 199 201 201 205 204 204 204 202 205 210
244 244 245 246 241 237 239 243 247 250 250 254 251 223 205 197 189 188 188 184 178 174 173 177 179 180 181 185 189 191 195 200 197 195 196 197 198 201 202 203 202 201 207 212
241 235 241 239 238 237 236 240 244 245 245 240 240 224 213 199 194 192 189 182 178 179 180 181 180 178 179 180 181 186 191 196 195 192 194 198 200 200 206 206 201 203 209 213
241 230 236 239 232 236 234 237 246 245 237 231 232 232 207 199 199 196 185 180 181 181 179 177 174 177 178 176 177 182 187 190 189 186 186 192 196 201 207 207 205 206 208 212
235 232 237 229 219 223 230 237 237 231 226 225 209 203 196 193 203 205 192 182 184 184 174 168 170 170 170 174 176 180 185 187 190 190 190 193 194 200 203 203 205 204 205 206
232 236 238 221 170 230 232 228 207 215 211 219 212 226 217 166 168 142 147 149 155 155 152 155 160 160 164 169 175 183 187 191 195 197 197 199 199 199 199 200 205 205 205 208
233 237 240 205 168 201 225 209 109 167 211 224 240 262 290 118 124 134 150 134 140 141 139 143 150 157 165 172 183 191 194 196 200 204 204 201 197 195 198 203 206 209 206 210
228 234 231 72 201 226 314 46 37 336 291 264 258 236 169 133 128 142 140 147 144 134 129 136 150 161 172 184 185 185 189 193 194 195 205 197 198 199 199 200 204 209 210 218
244 245 29 43 17 5 345 306 311 311 307 239 226 213 183 182 123 124 136 153 148 139 138 144 156 165 172 178 169 167 179 189 187 188 191 193 199 200 199 200 209 214 215 219
258 236 244 287 316 318 313 308 304 293 259 206 202 205 205 303 119 125 126 140 155 149 146 150 152 151 169 177 176 176 183 187 185 189 187 183 195 199 201 204 210 214 218 223
250 249 255 251 262 291 301 301 296 287 256 237 231 236 251 290 262 235 217 193 170 167 169 164 164 177 190 185 183 189 192 194 194 193 180 176 183 195 212 214 240 236 231 229
253 251 263 266 280 283 278 278 285 285 275 269 262 262 267 278 265 252 240 222 191 185 182 178 178 188 203 198 195 198 203 207 208 201 183 181 165 109 46 53 69 48 308 257
259 265 267 267 274 273 269 275 287 291 282 279 279 276 277 269 259 255 246 233 213 204 195 187 201 221 227 214 207 207 215 217 216 205 191 188 189 187 173 80 75 87 145 157
251 256 257 254 266 277 271 274 281 289 291 281 275 273 268 273 272 262 258 249 223 209 202 193 207 241 249 227 217 217 218 209 210 211 204 195 202 209 205 196 193 199 156 154
266 268 268 269 262 264 259 257 266 273 282 278 261 255 254 270 278 281 279 255 208 198 194 208 255 273 261 237 226 226 221 212 211 212 211 208 210 212 211 203 201 207 212 181
263 260 256 255 258 257 255 254 261 274 274 273 274 266 267 282 284 285 283 267 221 214 195 205 245 282 263 227 219 223 209 172 198 208 207 202 209 212 211 204 203 213 220 210
258 258 257 261 265 261 258 262 266 265 264 276 289 281 280 288 285 302 316 322 304 232 186 169 164 138 216 202 204 198 183 180 184 199 203 205 207 214 212 212 210 216 220 195
279 277 269 263 265 267 269 275 274 261 260 263 265 256 251 242 242 262 336 14 57 79 78 104 116 138 169 168 162 166 174 196 200 200 201 197 201 218 218 213 210 220 217 180
281 281 284 276 269 259 261 266 265 254 238 218 212 229 208 204 210 169 100 79 94 89 64 73 112 154 130 121 127 166 180 201 209 207 207 179 191 217 215 211 215 206 202 199
320 303 296 294 254 240 241 238 210 153 154 150 132 126 110 114 130 114 91 78 65 65 78 84 100 84 90 104 148 167 174 189 192 187 190 188 179 186 192 208 227 190 197 237
58 74 74 31 357 296 225 204 172 165 164 171 172 163 136 95 113 121 126 98 79 69 71 104 105 80 69 41 251 140 130 145 161 152 152 157 146 153 167 136 7 47 54 5
56 63 49 37 38 31 29 115 161 175 172 165 164 161 151 143 138 119 116 99 96 78 57 74 78 68 36 334 77 95 100 103 108 105 106 112 122 179 167 92 336 344 353 18
43 46 41 42 67 78 60 61 84 124 153 154 152 159 149 139 138 135 123 92 78 66 46 63 75 73 30 47 90 91 88 84 80 80 82 79 55 34 108 100 24 358 21 35
38 30 29 55 85 87 79 72 78 97 114 127 132 127 126 121 102 87 85 102 93 81 71 81 88 85 61 87 78 80 81 78 73 71 69 66 59 51 47 40 34 31 27 21
62 53 57 64 80 89 96 101 110 109 104 97 91 88 86 86 87 81 86 89 92 100 92 100 117 114 97 71 70 67 64 64 61 58 64 63 54 51 50 42 35 21 4 355
78 68 66 67 67 78 90 94 99 100 99 93 85 81 81 88 93 95 99 99 97 100 99 93 93 102 86 84 80 77 73 74 75 71 67 64 59 50 47 41 28 2 351 353
89 87 81 77 78 78 87 94 99 101 101 99 89 83 86 90 92 93 94 94 92 90 87 84 83 83 83 82 82 78 73 71 67 66 64 59 53 50 47 35 12 359 352 353
Height
1459 1456 1457 1459 1459 1460 1461 1458 1461 1458 1458 1459 1460 1464 1467 1470 1472 1474 1476 1478 1480 1482 1484 1487 1489 1492 1495 1497 1500 1503 1505 1507 1509 1510 1512 1514 1515 1516 1517 1518 1519 1520 1521 1521
1463 1458 1457 1458 1456 1456 1457 1456 1456 1457 1459 1459 1462 1465 1468 1470 1471 1472 1474 1476 1478 1480 1482 1484 1486 1488 1491 1494 1497 1499 1501 1504 1505 1507 1509 1510 1512 1513 1515 1515 1516 1517 1518 1518
1464 1457 1459 1462 1454 1453 1454 1453 1454 1456 1457 1460 1461 1464 1467 1469 1470 1471 1472 1475 1476 1478 1480 1481 1483 1485 1488 1491 1494 1496 1498 1500 1502 1503 1505 1507 1509 1510 1511 1512 1513 1513 1514 1515
1462 1465 1473 1452 1448 1449 1451 1453 1453 1454 1457 1459 1462 1464 1467 1468 1470 1471 1472 1473 1474 1476 1478 1480 1481 1483 1486 1488 1490 1493 1495 1497 1498 1500 1501 1503 1505 1506 1508 1509 1509 1510 1511 1511
1461 1462 1456 1452 1449 1450 1453 1455 1455 1456 1458 1460 1461 1463 1465 1467 1468 1470 1471 1472 1473 1475 1476 1478 1479 1481 1483 1485 1488 1490 1492 1493 1495 1496 1498 1499 1500 1502 1504 1505 1506 1506 1507 1507
1461 1464 1461 1449 1449 1452 1454 1457 1457 1458 1459 1460 1460 1459 1461 1466 1467 1468 1470 1471 1472 1473 1474 1476 1477 1479 1481 1483 1485 1486 1488 1489 1491 1492 1494 1495 1496 1498 1500 1502 1502 1503 1503 1504
1460 1458 1448 1448 1451 1454 1459 1456 1459 1459 1460 1461 1460 1461 1464 1465 1466 1467 1469 1469 1471 1472 1472 1474 1475 1476 1478 1480 1482 1483 1485 1487 1488 1489 1490 1491 1493 1494 1496 1498 1499 1499 1499 1500
1456 1457 1454 1452 1451 1453 1455 1458 1460 1461 1462 1462 1463 1463 1464 1465 1465 1466 1467 1469 1469 1470 1471 1472 1473 1474 1476 1477 1479 1481 1482 1484 1485 1486 1487 1488 1490 1491 1493 1494 1495 1495 1496 1496
1453 1454 1455 1456 1456 1458 1459 1460 1460 1461 1461 1462 1462 1462 1463 1464 1465 1465 1466 1467 1468 1469 1469 1470 1471 1473 1474 1475 1477 1478 1480 1481 1482 1483 1484 1485 1487 1488 1489 1490 1491 1492 1493 1493
1457 1454 1456 1457 1458 1459 1460 1460 1460 1460 1460 1460 1461 1461 1462 1463 1464 1464 1465 1466 1466 1467 1468 1468 1469 1470 1472 1473 1474 1476 1477 1478 1479 1480 1481 1482 1483 1484 1485 1486 1487 1489 1489 1490
1457 1457 1458 1457 1458 1459 1459 1459 1458 1459 1459 1459 1460 1460 1461 1462 1462 1463 1463 1464 1465 1466 1466 1466 1467 1468 1470 1471 1472 1473 1474 1475 1476 1477 1478 1479 1480 1480 1482 1483 1484 1485 1486 1486
1453 1454 1456 1457 1458 1458 1458 1457 1457 1457 1457 1458 1458 1459 1459 1460 1461 1461 1461 1462 1463 1463 1464 1465 1465 1466 1467 1469 1470 1470 1472 1473 1473 1474 1474 1475 1476 1477 1478 1479 1480 1481 1482 1482
1454 1454 1455 1455 1456 1456 1455 1455 1456 1456 1456 1456 1456 1457 1457 1458 1458 1459 1459 1460 1461 1461 1462 1462 1463 1464 1465 1466 1467 1468 1469 1470 1471 1471 1472 1472 1473 1475 1475 1476 1477 1478 1478 1478
1452 1452 1451 1452 1453 1453 1453 1453 1454 1454 1454 1454 1454 1454 1455 1455 1456 1456 1457 1458 1458 1459 1459 1460 1461 1462 1463 1463 1464 1465 1466 1467 1468 1468 1469 1470 1471 1472 1473 1473 1473 1474 1474 1475
1451 1451 1450 1450 1451 1451 1452 1452 1451 1451 1451 1451 1452 1452 1452 1453 1453 1454 1454 1455 1455 1456 1457 1458 1458 1459 1460 1461 1461 1462 1463 1464 1465 1465 1466 1467 1468 1469 1470 1470 1471 1471 1471 1472
1448 1448 1448 1449 1449 1449 1449 1449 1449 1449 1449 1449 1449 1449 1450 1451 1451 1452 1452 1453 1453 1453 1454 1455 1456 1457 1458 1458 1459 1459 1460 1461 1462 1463 1464 1464 1465 1466 1467 1467 1468 1469 1469 1469
1446 1445 1445 1446 1446 1446 1446 1446 1447 1447 1447 1447 1447 1448 1448 1448 1449 1449 1450 1451 1451 1451 1452 1453 1454 1455 1456 1456 1457 1458 1458 1459 1460 1461 1462 1462 1463 1463 1464 1465 1465 1466 1466 1465
1444 1444 1444 1444 1444 1444 1444 1444 1444 1444 1445 1445 1445 1446 1446 1447 1447 1448 1448 1449 1449 1450 1451 1452 1452 1453 1454 1454 1455 1455 1456 1458 1459 1459 1459 1460 1461 1462 1462 1462 1463 1463 1462 1462
1442 1442 1442 1442 1442 1442 1442 1442 1442 1443 1443 1444 1444 1445 1445 1446 1446 1447 1448 1448 1449 1449 1450 1451 1451 1452 1453 1453 1453 1454 1455 1456 1457 1457 1457 1457 1458 1459 1460 1460 1460 1460 1460 1460
1439 1440 1440 1441 1441 1441 1441 1441 1441 1441 1442 1443 1443 1443 1444 1445 1446 1446 1447 1448 1449 1449 1450 1450 1450 1451 1451 1452 1452 1452 1453 1453 1454 1454 1455 1455 1455 1456 1457 1457 1457 1457 1457 1457
1439 1439 1440 1440 1440 1440 1440 1440 1440 1441 1441 1442 1442 1443 1443 1444 1445 1446 1447 1448 1448 1448 1449 1449 1450 1450 1450 1450 1451 1452 1452 1452 1452 1452 1452 1453 1453 1454 1454 1455 1455 1455 1454 1455
1439 1439 1440 1440 1439 1439 1440 1440 1440 1440 1441 1441 1442 1442 1443 1444 1445 1446 1447 1448 1448 1448 1449 1450 1450 1450 1450 1450 1451 1451 1451 1451 1451 1451 1451 1451 1452 1452 1452 1452 1453 1453 1453 1453
1439 1440 1440 1440 1440 1440 1440 1440 1440 1439 1440 1441 1441 1442 1443 1444 1445 1446 1447 1448 1448 1448 1449 1449 1449 1450 1450 1450 1451 1451 1451 1450 1450 1450 1450 1450 1450 1451 1450 1451 1451 1451 1451 1451
1440 1440 1440 1440 1440 1440 1440 1440 1440 1440 1440 1441 1442 1443 1443 1444 1445 1446 1446 1447 1447 1448 1448 1449 1449 1449 1449 1450 1450 1450 1450 1450 1450 1450 1449 1449 1449 1449 1449 1449 1449 1449 1449 1449
1440 1440 1440 1441 1441 1441 1441 1441 1441 1441 1442 1442 1443 1443 1444 1445 1445 1446 1446 1447 1447 1448 1448 1449 1449 1449 1450 1450 1450 1450 1450 1450 1449 1449 1449 1449 1449 1449 1448 1448 1448 1448 1448 1448
1441 1441 1442 1442 1442 1442 1442 1442 1443 1443 1443 1443 1444 1445 1445 1445 1446 1446 1446 1447 1447 1448 1449 1450 1450 1450 1451 1451 1450 1450 1449 1449 1449 1449 1449 1449 1449 1448 1448 1448 1448 1447 1447 1447
1443 1443 1443 1443 1443 1444 1444 1444 1444 1444 1445 1445 1446 1446 1447 1447 1447 1447 1448 1448 1449 1449 1450 1450 1451 1451 1451 1451 1451 1450 1450 1450 1450 1449 1449 1449 1449 1449 1448 1448 1447 1447 1446 1445